ARIANE 44LP+ R/B, 22913

Orbit data source: Space-Track

ARIANE 44LP+ R/B, 22913 is space debris in LEO originally from a launch on Sat, 20 Nov 1993 UTC launched from the French Guiana (FRGUI). Debris objects in space refer to the collection of defunct objects orbiting the Earth. Examples of debris include non-operational satellites, rocket bodies, and fragments generated from explosions, collisions, or faulty payload assembly.

Loading next visibility...
Identifier
22913, 1993-073C
Orbit
LEO
Country
Flag of FRFR
Related business
Manufacturer
Ae/LesM
Mission
Spacecraft
Bus & Motor
ARIANE H10+/S, Unknown motor
Mass
2,260 kg wet, 2,080 kg dry
Launch date (UTC)
1993-11-20 (32 years ago)
Launch vehicle
Unknown
Launch site
French Guiana (FRGUI)
Object type
Payload
Rocket body
Debris
Shape & HBR
Cyl, 7.0 m
Radar Cross Section
31.447 m², Large (>1 m²)

Expand to show TLE details & history
Last TLE update: 1 day ago

TLE from 1 day ago
0 ARIANE 44LP+ R/B
1 22913U 93073C   25259.91307850  .00176560 -10191-4  17226-2 0  9997
2 22913   6.7363 251.5032 1973410 163.4558 204.0480 11.63210011680030
Epoch: 2025-09-16T21:54Z
TLE epoch observation values (Epoch: 2025-09-16T21:54:49.982Z)
Latitude
-0°
Longitude
-73.30162°
Altitude
3,370.976 km
Speed
5.776 km/s
True Right ascension
16h 46m 00s
True Declination
0° 00' 00"
Sunlit
Object was in daylight at epoch
Visualization orbit readout
Latitude
Unknown
Longitude
Unknown
Altitude
Unknown
Speed
Unknown
Apparent Right ascension
Unknown
Apparent Declination
Unknown
Sunlit
N/A
Visualization observer readout
Local Sidereal Time
23:18:46
Azimuth
Unknown
Elevation
Unknown
Doppler factor
Unknown
Orbital elements
Apogee altitude
3,480.305 km
Perigee altitude
230.646 km
Semi-major axis
8,233.612 km
Eccentricity
0.19734
Inclination
6.7363°
RAAN
251.5032°
Arg. of periapsis
163.4558°
True anomaly
196.55618°
Mean anomaly
204.048°
Eccentric anomaly
200.15257°
Mean motion
2.90508 °/min
Orbital period
123.92 mins
BSTAR
0.0017226
Loading maneuver chart data...
Computing Atmospheric mass density...
Loading historical data...
Loading historical data...
Loading historical data...
Loading historical data...
Loading historical data...
Loading historical data...
Loading historical data...

Documentation

Showing up to 5 results
|